Location: Rounton
(54.4000°N, 1.3500°W)
Time: 04:10:47
(UTC+00:00)

S-56A Canister/Altair - Pass Details

Date: 02 December 2021
Orbit: 633 x 2499 km, 38.9° (Epoch: 17 January)

Event Time Altitude Azimuth Distance (km) Brightness Sun altitude
Rises 23:41:38 0° 209° (SSW) 5,022 - -57.6°
Reaches altitude 10° 23:47:15 10° 188° (S) 3,583 - -57.7°
Maximum altitude 23:51:18 14° 160° (SSE) 2,937 - -57.7°
Drops below altitude 10° 23:54:46 10° 131° (SE) 2,944 - -57.7°
Sets 23:58:33 0° 107° (ESE) 3,583 - -57.7°
